Regional Weather Roundup
Issued by NWS

Home | Current Version | Previous Version | Text Only | Print | Product List | Glossary On
Versions: 1 2 3 4 5 6 7 8 9 10 11 12 13 14 15 16 17 18 19 20 21 22 23 24 25 26 27 28 29 30 31 32 33 34 35 36 37 38 39 40 41 42 43 44 45 46 47 48 49 50
000
ASUS44 KFWD 280603
RWRTX
NORTH TEXAS HOURLY WEATHER ROUNDUP
NATIONAL WEATHER SERVICE FORT WORTH TX
1200 AM CST FRI NOV 28 2014

NOTE: "FAIR" INDICATES FEW OR NO CLOUDS BELOW 12,000 FEET WITH NO
SIGNIFICANT WEATHER AND/OR OBSTRUCTIONS TO VISIBILITY.

TXZ118-119-280700-
DALLAS/FORT WORTH METROPLEX

CITY           SKY/WX    TMP DP  RH WIND       PRES   REMARKS
DFW AIRPORT    CLEAR     42  29  59 S8        30.34F WCI  37
6HR MIN TEMP:  42; 6HR MAX TEMP:  51;

DALLAS LOVE    CLEAR     43  30  60 SE8       30.36F WCI  38
6HR MIN TEMP:  42; 6HR MAX TEMP:  55;

FTW MEACHAM    CLEAR     45  29  53 SE6       30.34F
6HR MIN TEMP:  45; 6HR MAX TEMP:  53;

DAL-EXECUTIVE  CLEAR     47  26  44 S5        30.35F
6HR MIN TEMP:  43; 6HR MAX TEMP:  52;

FTW-ALLIANCE   CLEAR     42  27  55 S3        30.34F
6HR MIN TEMP:  38; 6HR MAX TEMP:  49;

FTW-SPINKS     CLEAR     42  28  57 CALM      30.37S
6HR MIN TEMP:  39; 6HR MAX TEMP:  51;

ARLINGTON      CLEAR     37  29  72 CALM      30.36F
6HR MIN TEMP:  36; 6HR MAX TEMP:  50;

GRAND PRAIRIE  CLEAR     46  31  56 S3        30.37F
6HR MIN TEMP:  46; 6HR MAX TEMP:  54;

ADDISON        CLEAR     46  32  58 CALM      30.37S
6HR MIN TEMP:  44; 6HR MAX TEMP:  54;

MESQUITE       CLEAR     39  27  62 S5        30.37F WCI  35
6HR MIN TEMP:  36; 6HR MAX TEMP:  51;

LANCASTER      CLEAR     36  28  72 CALM      30.38F
6HR MIN TEMP:  36; 6HR MAX TEMP:  54;

$$

TXZ091>094-102>105-117-120-121-131>134-280700-
NORTH CENTRAL TEXAS

CITY           SKY/WX    TMP DP  RH WIND       PRES   REMARKS
SHRMAN/DENISON CLEAR     43  27  53 SE8       30.34F WCI  38
6HR MIN TEMP:  40; 6HR MAX TEMP:  52;

BRIDGEPORT     CLEAR     37  30  76 CALM      30.34F
6HR MIN TEMP:  37; 6HR MAX TEMP:  49;

DECATUR        CLEAR     47  26  43 S13       30.32F
6HR MIN TEMP:  44; 6HR MAX TEMP:  48;

DENTON         CLEAR     41  28  60 SE7       30.34F WCI  36
6HR MIN TEMP:  38; 6HR MAX TEMP:  50;

MCKINNEY       CLEAR     38  26  62 CALM      30.36F
6HR MIN TEMP:  36; 6HR MAX TEMP:  50;

GREENVILLE     CLEAR     39  27  60 CALM      30.37F
ROCKWALL       CLEAR     44  26  48 SE6       30.35F
6HR MIN TEMP:  44; 6HR MAX TEMP:  54;

TERRELL        CLEAR     39  30  70 CALM      30.37F
6HR MIN TEMP:  37; 6HR MAX TEMP:  54;

WAXAHACHIE     CLEAR     42  29  59 SE3       30.38S
6HR MIN TEMP:  42; 6HR MAX TEMP:  51;

CLEBURNE       CLEAR     45  28  53 S7        30.36F
GRANBURY       CLEAR     40  32  71 CALM      30.35F
6HR MIN TEMP:  40; 6HR MAX TEMP:  55;

$$

TXZ083>090-098>101-113>116-127>130-139>142-154-155-280700-
WESTERN NORTH TEXAS

CITY           SKY/WX    TMP DP  RH WIND       PRES   REMARKS
WICHITA FALLS  CLEAR     43  28  55 S13       30.27F WCI  36
6HR MIN TEMP:  41; 6HR MAX TEMP:  50;

WF-KICKAPOO    CLEAR     40  30  66 S8        30.29F WCI  35
6HR MIN TEMP:  40; 6HR MAX TEMP:  47;

VERNON         CLEAR     39  30  70 S6        30.26F WCI  35
ABILENE        CLEAR     51  31  46 S15       30.28F
6HR MIN TEMP:  46; 6HR MAX TEMP:  53;

ABILENE-DYESS  CLEAR     50  33  51 S18G28    30.27F
6HR MIN TEMP:  41; 6HR MAX TEMP:  51;

MINERAL WELLS  CLEAR     41  29  62 SE9       30.32F WCI  35
6HR MIN TEMP:  41; 6HR MAX TEMP:  51;

STEPHENVILLE   CLEAR     40  30  67 CALM      30.36F
6HR MIN TEMP:  40; 6HR MAX TEMP:  54;

COMANCHE       CLEAR     42  32  67 S7        30.34F WCI  38
6HR MIN TEMP:  41; 6HR MAX TEMP:  53;

COLEMAN        CLEAR     43  34  71 S7        30.33F WCI  39
6HR MIN TEMP:  43; 6HR MAX TEMP:  52;

BRADY          CLEAR     43  30  61 S6        30.33F WCI  39
$$

TXZ143>147-156>162-174-175-280700-
CENTRAL TEXAS

CITY           SKY/WX    TMP DP  RH WIND       PRES   REMARKS
WACO           CLEAR     36  33  89 SW5       30.37F WCI  32
6HR MIN TEMP:  35; 6HR MAX TEMP:  49;

WACO-MCGREGOR  CLEAR     39  27  60 SW6       30.37F WCI  35
6HR MIN TEMP:  39; 6HR MAX TEMP:  54;

CORSICANA      CLEAR     45  31  58 S5        30.39S
6HR MIN TEMP:  44; 6HR MAX TEMP:  54;

MEXIA          CLEAR     44  33  66 SE3       30.37S
6HR MIN TEMP:  44; 6HR MAX TEMP:  54;

HEARNE         CLEAR     39  35  86 CALM      30.40F
6HR MIN TEMP:  39; 6HR MAX TEMP:  53;

CAMERON        CLEAR     45  32  60 S3        30.38F
6HR MIN TEMP:  45; 6HR MAX TEMP:  54;

TEMPLE         CLEAR     45  28  53 SE5       30.36F
6HR MIN TEMP:  43; 6HR MAX TEMP:  54;

KILLEEN        CLEAR     41  32  68 S6        30.36F WCI  38
6HR MIN TEMP:  39; 6HR MAX TEMP:  53;

KILLEEN-SKYLRK CLEAR     39  28  65 CALM      30.36S
6HR MIN TEMP:  39; 6HR MAX TEMP:  52;

FORT HOOD      CLEAR     45  32  60 SE5       30.36F
6HR MIN TEMP:  44; 6HR MAX TEMP:  56;

GATESVILLE     CLEAR     43  32  65 CALM      30.38F
HAMILTON       CLEAR     41  31  67 S7        30.35F WCI  36
6HR MIN TEMP:  40; 6HR MAX TEMP:  51;

LAMPASAS       CLEAR     44  32  63 CALM      30.35F
6HR MIN TEMP:  41; 6HR MAX TEMP:  53;

$$

TXZ095>097-106>112-122>126-135>138-148>153-164>167-280700-
EAST TEXAS

CITY           SKY/WX    TMP DP  RH WIND       PRES   REMARKS
PARIS          CLEAR     36  27  69 SE8       30.38F WCI  29
6HR MIN TEMP:  36; 6HR MAX TEMP:  48;

SULPHUR SPRNGS CLEAR     44  28  53 SE8       30.39F WCI  39
6HR MIN TEMP:  42; 6HR MAX TEMP:  52;

MOUNT PLEASANT CLEAR     37  30  75 SE3       30.41F
6HR MIN TEMP:  37; 6HR MAX TEMP:  50;

MINEOLA        CLEAR     39  32  75 SE3       30.39F
TYLER          CLEAR     43  29  57 SE6       30.39F WCI  39
6HR MIN TEMP:  42; 6HR MAX TEMP:  54;

LONGVIEW       CLEAR     38  32  79 CALM      30.40F
6HR MIN TEMP:  38; 6HR MAX TEMP:  48;

MARSHALL       CLEAR     38  35  88 CALM      30.44S
6HR MIN TEMP:  37; 6HR MAX TEMP:  48;

ATHENS         CLEAR     34  32  93 CALM      30.38F
PALESTINE      CLEAR     47  33  57 SE3       30.40F HAZE
JACKSONVILLE   CLEAR     47  29  49 CALM      30.41S
HENDERSON      CLEAR     36  33  90 CALM      30.41F
6HR MIN TEMP:  36; 6HR MAX TEMP:  47;

NACOGDOCHES    CLEAR     34  30  86 E3        30.41F
6HR MIN TEMP:  34; 6HR MAX TEMP:  48;

LUFKIN         CLEAR     42  34  73 E3        30.41F
6HR MIN TEMP:  41; 6HR MAX TEMP:  52;

$$

SUPPLEMENTAL OBSERVATIONS (CENTRAL)

CITY           SKY/WX    TMP DP  RH WIND       PRES   REMARKS
$$

SUPPLEMENTAL OBSERVATIONS (WEST)

CITY           SKY/WX    TMP DP  RH WIND       PRES   REMARKS
$$

SUPPLEMENTAL OBSERVATIONS (EAST)

CITY           SKY/WX    TMP DP  RH WIND       PRES   REMARKS
$$

SUPPLEMENTAL OBSERVATIONS ARE A COLLECTION OF AUTOMATED INSTRUMENTS
THAT ARE MAINTAINED BY A VARIETY OF FEDERAL AND STATE AGENCIES.
CERTAIN ELEMENTS...SUCH AS HUMIDITY VALUES AND SUSTAINED WIND
SPEEDS...MAY BE APPROXIMATED.



USA.gov is the U.S. government's official web portal to all federal, state and local government web resources and services.